Regional Weather Roundup
Issued by NWS Albany, NY

Home | Current Version | Previous Version | Text Only | Print | Product List | Glossary On
Versions: 1 2 3 4 5 6 7 8 9 10 11 12 13 14 15 16 17 18 19 20 21 22 23 24 25 26 27 28 29 30 31 32 33 34 35 36 37 38 39 40 41 42 43 44 45 46 47 48 49 50
000
ASUS41 KALY 071510
RWRALY

NEW YORK STATE HOURLY WEATHER ROUNDUP
NATIONAL WEATHER SERVICE ALBANY NY
1100 AM EDT TUE JUL 07 2015

NOTE: "FAIR" INDICATES FEW OR NO CLOUDS BELOW 12,000 FEET WITH NO
SIGNIFICANT WEATHER AND/OR NO OBSTRUCTIONS TO VISIBILITY.

NYZ032-033-038>043-046>054-057>066-NYZ062>081-071600-
EAST


CITY           SKY/WX    TMP DP  RH WIND       PRES   REMARKS
ALBANY         CLOUDY    78  69  73 S14       29.99F
GLENS FALLS    CLOUDY    78  68  71 SW10      29.98F
POUGHKEEPSIE   PTSUNNY   82  70  66 SE8       30.01F
NEWBURGH       PTSUNNY   79  72  78 VRB6      30.04F
MONTGOMERY     PTSUNNY   81  72  74 SW8       30.02F
WHITE PLAINS   PTSUNNY   77  73  87 CALM      30.04F
ISLIP          CLOUDY    78  73  84 S10       30.04F
NEW YORK CITY  PTSUNNY   84  71  65 S14       30.02F
CENTRAL PARK   PTSUNNY   82  71  69 SW3       30.05F
$$

NYZ005>009-017-018-044>046-055-056-071600-
CENTRAL


CITY           SKY/WX    TMP DP  RH WIND       PRES   REMARKS
FULTON         PTSUNNY   79  70  74 SW8       29.94S
SYRACUSE       CLOUDY    79  70  74 S10       29.94F
ROME           LGT RAIN  75  71  87 E6        29.98F
ELMIRA         MOSUNNY   80  70  71 SW7       29.97F
BINGHAMTON     CLOUDY    73  69  87 S9        30.03R
MONTICELLO     PTSUNNY   75  70  83 S9        30.06F
$$

NYZ026>034-041>043-071600-
NORTH


CITY           SKY/WX    TMP DP  RH WIND       PRES   REMARKS
WATERTOWN      MOSUNNY   79  69  71 SW10G20   29.91F
FORT DRUM      NOT AVBL
MASSENA        PTSUNNY   78  70  76 S16       29.90F
SARANAC LAKE     N/A    N/A N/A N/A MISG      29.99R
PLATTSBURGH    PTSUNNY   78  68  71 SE15      29.94S
$$

NYZ001>004-010>016-019>021-071600-
WEST


CITY           SKY/WX    TMP DP  RH WIND       PRES   REMARKS
NIAGARA FALLS  PTSUNNY   80  67  64 SW17      29.89F
BUFFALO        PTSUNNY   81  67  62 S12       29.92F
DUNKIRK        SUNNY     81  68  64 S18G26    29.93F
JAMESTOWN      CLOUDY    75  66  73 S10       30.01F
WELLSVILLE     MOSUNNY   76  63  64 SW8G17    30.06R
ROCHESTER      PTSUNNY   81  69  67 S10       29.93S
PENN YAN       MOSUNNY   80  69  69 SW9       29.97S
$$

             KEY
       WCI = WIND CHILL INDEX
       VSB = VISIBILITY
       HX  = HEAT INDEX
$$


USA.gov is the U.S. government's official web portal to all federal, state and local government web resources and services.